This demonstration page uses our WeatherBlox Daily Observations layout. Learn more.

Hourly Observations for November 16, 2020

Temp ( °F °C ) Dew Point ( °F °C ) Humidity (%) Winds ( mph kmh ) Pressure ( in mb ) Visibility ( mi km ) Precip ( " mm )
12:15 am 00:15 Partly Cloudy 52 11 32 0 47 47 WNW 22 35 29.96 1015 10 16.0934 0 0
12:35 am 00:35 Clear 52 11 32 0 47 47 WNW 20 31 29.96 1015 10 16.0934 0 0
12:55 am 00:55 Clear 52 11 32 0 47 47 WNW 22 35 29.96 1015 10 16.0934 0 0
1:15 am 01:15 Clear 52 11 32 0 47 47 WNW 22 35 29.97 1015 10 16.0934 0 0
1:35 am 01:35 Clear 50 10 32 0 50 50 WNW 18 30 29.98 1015 10 16.0934 0 0
1:55 am 01:55 Clear 50 10 32 0 50 50 WNW 15 24 29.99 1015 10 16.0934 0 0
2:15 am 02:15 Clear 50 10 30 -1 47 47 WNW 17 28 29.98 1015 10 16.0934 0 0
2:35 am 02:35 Clear 50 10 30 -1 47 47 WNW 16 26 29.99 1015 10 16.0934 0 0
2:55 am 02:55 Clear 50 10 30 -1 47 47 W 29 46 30 1016 10 16.0934 0 0
3:15 am 03:15 Clear 50 10 30 -1 47 47 WNW 20 31 30.01 1016 10 16.0934 0 0
3:35 am 03:35 Clear 50 10 30 -1 47 47 W 15 24 30.01 1016 10 16.0934 0 0
3:55 am 03:55 Clear 50 10 30 -1 47 47 W 18 30 30.02 1016 10 16.0934 0 0
4:15 am 04:15 Clear 50 10 30 -1 47 47 W 18 30 30.02 1016 10 16.0934 0 0
4:35 am 04:35 Clear 50 10 28 -2 43 43 W 21 33 30.02 1016 10 16.0934 0 0
4:55 am 04:55 Clear 48 9 30 -1 50 50 WNW 15 24 30.03 1017 10 16.0934 0 0
5:15 am 05:15 Clear 48 9 30 -1 50 50 WNW 20 31 30.03 1017 10 16.0934 0 0
5:35 am 05:35 Clear 46 8 28 -2 50 50 WNW 18 30 30.04 1017 10 16.0934 0 0
5:55 am 05:55 Clear 46 8 28 -2 50 50 WNW 20 31 30.03 1017 10 16.0934 0 0
6:15 am 06:15 Clear 46 8 28 -2 50 50 WNW 21 33 30.03 1017 10 16.0934 0 0
6:35 am 06:35 Clear 46 8 28 -2 50 50 W 15 24 30.03 1017 10 16.0934 0 0
6:55 am 06:55 Clear 46 8 28 -2 50 50 WNW 9 15 30.04 1017 10 16.0934 0 0
7:15 am 07:15 Sunny 46 8 28 -2 50 50 W 5 7 30.05 1018 10 16.0934 0 0
7:35 am 07:35 Sunny 46 8 30 -1 53 53 W 7 11 30.06 1018 10 16.0934 0 0
7:55 am 07:55 Sunny 46 8 30 -1 53 53 W 7 11 30.05 1018 10 16.0934 0 0
8:15 am 08:15 Sunny 48 9 30 -1 50 50 Calm 30.06 1018 10 16.0934 0 0
8:35 am 08:35 Sunny 50 10 30 -1 47 47 S 3 6 30.07 1018 10 16.0934 0 0
8:55 am 08:55 Sunny 50 10 30 -1 47 47 SW 7 11 30.08 1018 10 16.0934 0 0
9:15 am 09:15 Sunny 50 10 30 -1 47 47 W 8 13 30.09 1019 10 16.0934 0 0
9:35 am 09:35 Sunny 52 11 30 -1 44 44 W 16 26 30.08 1019 10 16.0934 0 0
9:55 am 09:55 Sunny 52 11 30 -1 44 44 WNW 10 17 30.09 1019 10 16.0934 0 0
10:15 am 10:15 Sunny 52 11 30 -1 44 44 W 14 22 30.08 1019 10 16.0934 0 0
10:35 am 10:35 Sunny 54 12 30 -1 41 41 WNW 12 19 30.08 1019 10 16.0934 0 0
10:55 am 10:55 Sunny 54 12 30 -1 41 41 WNW 17 28 30.07 1018 10 16.0934 0 0
11:15 am 11:15 Sunny 54 12 30 -1 41 41 WNW 9 15 30.07 1018 10 16.0934 0 0
11:35 am 11:35 Sunny 55 13 30 -1 38 38 WNW 10 17 30.06 1018 10 16.0934 0 0
11:55 am 11:55 Sunny 55 13 30 -1 38 38 NW 13 20 30.06 1018 10 16.0934 0 0
12:15 pm 12:15 Sunny 57 14 28 -2 33 33 W 15 24 30.05 1018 10 16.0934 0 0
12:35 pm 12:35 Sunny 59 15 28 -2 31 31 WNW 14 22 30.05 1018 10 16.0934 0 0
12:55 pm 12:55 Sunny 59 15 28 -2 31 31 NW 12 19 30.05 1018 10 16.0934 0 0
1:15 pm 13:15 Sunny 59 15 28 -2 31 31 W 10 17 30.04 1017 10 16.0934 0 0
1:35 pm 13:35 Sunny 59 15 27 -3 29 29 NW 17 28 30.03 1017 10 16.0934 0 0
1:55 pm 13:55 Sunny 59 15 27 -3 29 29 NW 18 30 30.02 1017 10 16.0934 0 0
2:15 pm 14:15 undefined N/A N/A N/A undefined N/A N/A N/A 0 0
2:35 pm 14:35 Sunny 59 15 23 -5 25 25 NW 12 19 30.02 1017 10 16.0934 0 0
2:55 pm 14:55 Sunny 64 18 27 -3 24 24 NNW 8 13 30.01 1016 10 16.0934 0 0
3:15 pm 15:15 Sunny 59 15 25 -4 27 27 WNW 7 11 30.02 1017 10 16.0934 0 0
3:35 pm 15:35 Sunny 57 14 27 -3 31 31 NW 7 11 30.02 1017 10 16.0934 0 0
3:55 pm 15:55 Sunny 55 13 25 -4 31 31 NW 9 15 30.02 1017 10 16.0934 0 0
4:15 pm 16:15 Sunny 55 13 25 -4 31 31 NW 10 17 30.03 1017 10 16.0934 0 0
4:35 pm 16:35 Sunny 54 12 23 -5 30 30 NNW 6 9 30.03 1017 10 16.0934 0 0
4:55 pm 16:55 Sunny 52 11 23 -5 32 32 NW 9 15 30.04 1017 10 16.0934 0 0
5:15 pm 17:15 Clear 50 10 23 -5 35 35 NW 8 13 30.05 1017 10 16.0934 0 0
6:35 pm 18:35 Clear 46 8 23 -5 40 40 WNW 5 7 30.08 1019 10 16.0934 0 0
6:55 pm 18:55 Clear 46 8 23 -5 40 40 NW 8 13 30.08 1019 10 16.0934 0 0
7:15 pm 19:15 Clear 46 8 23 -5 40 40 NW 8 13 30.09 1019 10 16.0934 0 0
7:35 pm 19:35 Clear 46 8 23 -5 40 40 NW 9 15 30.09 1019 10 16.0934 0 0
7:55 pm 19:55 Clear 46 8 23 -5 40 40 NW 9 15 30.09 1019 10 16.0934 0 0
8:15 pm 20:15 Clear 46 8 23 -5 40 40 WNW 9 15 30.09 1019 10 16.0934 0 0
8:35 pm 20:35 Clear 46 8 23 -5 40 40 WNW 9 15 30.09 1019 10 16.0934 0 0
8:55 pm 20:55 Clear 46 8 21 -6 37 37 W 9 15 30.09 1019 10 16.0934 0 0
9:15 pm 21:15 Clear 46 8 23 -5 40 40 W 7 11 30.09 1019 10 16.0934 0 0
9:35 pm 21:35 Clear 45 7 23 -5 42 42 W 6 9 30.09 1019 10 16.0934 0 0
9:55 pm 21:55 Clear 45 7 23 -5 42 42 W 6 9 30.09 1019 10 16.0934 0 0
10:15 pm 22:15 Clear 45 7 21 -6 39 39 WSW 3 6 30.08 1019 10 16.0934 0 0
10:35 pm 22:35 Clear 45 7 21 -6 39 39 W 3 6 30.08 1019 10 16.0934 0 0
10:55 pm 22:55 Clear 45 7 21 -6 39 39 Calm 30.09 1019 10 16.0934 0 0
11:15 pm 23:15 Clear 43 6 23 -5 46 46 Calm 30.08 1019 10 16.0934 0 0
11:35 pm 23:35 Clear 41 5 23 -5 49 49 Calm 30.08 1019 10 16.0934 0 0
11:55 pm 23:55 Clear 41 5 23 -5 49 49 Calm 30.08 1019 10 16.0934 0 0

Powered by AerisWeather